[[{"header":{"parameterUnit":"m.s-1","parameterCategory":1,"la1":30.2991,"la2":30.254,"lo1":-89.0895,"lo2":-89.0444,"dy":0.0017,"dx":0.0017,"nx":28,"ny":28,"refTime":"2025-03-19T21:00:00:Z","depth":0,"parameterNumber":2,"parameterNumberName":"U-component_of_WINDS"},"data":[0,0,0,0,0,0,0,0,0,0,0,0,0,0,0,0,0,0,0,0,0,0,0,0,0,0,0,0,0,0,0,0,0,0,0,0,0,0,0,0,0,0,0,0,0,0,0,0,0,0,0,0,0,0,0,0,0,0,4.7185,4.7186,0,4.7262,4.7263,4.7264,4.7242,4.7241,4.7239,4.7238,4.7317,4.7321,4.7324,0,0,0,0,0,0,0,0,0,0,0,0,0,4.702,4.7023,4.7185,4.7186,4.7187,4.7262,4.7263,4.7264,4.7243,4.7241,4.7239,4.7237,4.7316,4.732,4.7324,0,0,0,0,0,0,0,0,0,0,0,0,0,4.7094,4.7024,4.7185,4.7185,4.7186,4.7262,4.7263,4.7265,4.7243,4.7241,4.7238,4.7236,4.7314,4.732,4.7325,4.7405,0,0,4.7341,4.7344,0,0,0,0,0,0,0,0,4.709,4.71,4.7184,4.7185,4.7186,4.724,4.7234,4.7312,4.7244,4.7221,4.7238,4.7235,4.7293,4.73,4.732,4.7409,4.7412,4.7342,4.7345,4.7347,4.7349,0,0,0,0,0,0,0,4.7085,4.7096,4.7215,4.7185,4.7187,4.7182,4.719,4.7249,4.727,4.7223,4.7222,4.7231,4.7294,4.7315,4.7322,4.7414,4.7342,4.7346,4.735,4.7352,4.7575,4.7578,0,0,0,0,0,0,4.7078,4.7092,4.7213,4.7218,4.7131,4.7187,4.7196,4.7225,4.7269,4.7273,4.7233,4.723,4.7307,4.7316,4.7324,4.7423,4.7347,4.7352,4.7355,4.7573,4.7576,4.7579,0,0,0,0,0,0,4.7075,4.7089,4.721,4.7155,4.717,4.7192,4.7226,4.7228,4.7249,4.7277,4.728,4.7251,4.7305,4.7317,4.7386,4.7425,4.7355,4.736,4.7569,4.7574,4.7577,4.762,0,0,0,0,0,0,4.707,4.7088,4.7118,4.7156,4.7173,4.727,4.7228,4.7231,4.7259,4.7255,4.7294,4.7299,4.7304,4.7378,4.7391,4.7432,4.7364,4.7566,4.7571,4.7576,4.7615,4.7625,4.7633,0,0,0,0,0,4.7065,4.7127,4.712,4.7135,4.7211,4.7272,4.7282,4.7287,4.7262,4.7293,4.7311,4.7297,4.7419,4.7385,4.74,4.7442,4.7563,4.757,4.7576,4.7611,4.7623,4.7633,0,0,0,0,0,0,4.7093,4.7131,4.7124,4.72,4.7233,4.7268,4.7307,4.7299,4.734,4.7335,4.734,4.7349,4.742,4.7438,4.74,4.7524,4.7488,4.7497,4.7509,4.7521,4.753,4.7524,4.7368,0,0,0,0,0,4.7108,4.7154,4.7185,4.7249,4.7266,4.7284,4.7311,4.7313,4.7347,4.736,4.7383,4.7417,4.7463,4.7493,4.7537,4.7618,4.7627,4.7655,4.7664,4.7671,4.7679,4.7726,4.7739,4.7599,4.7599,4.7599,0,0,4.7139,4.7166,4.7194,4.7256,4.7281,4.733,4.7296,4.7347,4.7384,4.7368,4.7435,4.7453,4.7492,4.7568,4.7602,4.7585,4.772,4.7679,4.7684,4.7689,4.7733,4.7746,4.7758,4.7603,4.7602,4.7602,0,0,4.7221,4.7246,4.7303,4.733,4.7369,4.7381,4.7395,4.7432,4.7444,4.7511,4.7501,4.7545,4.7624,4.7652,4.7677,4.7773,4.7763,4.7788,4.7835,4.7881,4.7892,4.7901,4.7937,4.795,4.7796,4.7796,4.7796,0,4.7255,4.7327,4.7333,4.7387,4.7415,4.7404,4.7462,4.7488,4.754,4.756,4.754,4.7641,4.7665,4.7749,4.7773,4.7793,4.781,4.7783,4.7889,4.7899,4.7909,4.7943,4.7956,4.7798,4.7798,4.7798,4.7798,0,4.7368,4.7418,4.746,4.7511,4.7544,4.76,4.7615,4.7648,4.7647,4.7662,4.7732,4.7762,4.7813,4.7833,4.7833,4.7918,4.7906,4.7888,4.7851,4.7925,4.7957,4.797,4.7802,4.7801,4.7801,4.78,0,0,4.7468,4.7524,4.7539,4.7563,4.7608,4.7647,4.7704,4.7754,4.7782,4.7819,4.7868,4.7936,4.7921,4.7949,4.7952,4.7992,4.8069,4.7969,4.797,4.7987,4.8166,4.818,4.8195,4.8063,4.8065,4.8067,4.8163,0,4.7555,4.7654,4.7662,4.7751,4.7799,4.7791,4.7841,4.7874,4.789,4.7933,4.7951,4.8,4.7975,4.7992,4.8031,4.8051,4.8105,4.8044,4.8108,4.8111,4.8099,4.8212,4.8226,4.8315,4.8176,4.8178,4.818,0,4.7668,4.771,4.7805,4.7845,4.7865,4.7909,4.7958,4.7999,4.8037,4.8046,4.8079,4.8078,4.8138,4.81,4.8183,4.8141,4.8169,4.8183,4.8186,4.8193,4.8149,4.8221,4.8343,4.8357,4.8199,4.8198,4.8196,0,4.7733,4.7813,4.7881,4.7902,4.795,4.7981,4.8003,4.8039,4.807,4.8112,4.8132,4.8181,4.8208,4.8246,4.8258,4.8229,4.8342,4.8304,4.8352,4.8352,4.8375,4.8374,4.8504,4.8392,4.8392,4.8392,4.8391,0,4.7829,4.7888,4.7911,4.7952,4.8018,4.8028,4.8093,4.8113,4.8146,4.8192,4.8188,4.8232,4.8245,4.8292,4.8302,4.837,4.8382,4.8392,4.8394,4.8392,4.8391,4.841,4.8404,4.8395,4.8394,4.8394,4.8393,0,4.7913,4.793,4.8004,4.8044,4.8056,4.8103,4.8138,4.8179,4.8195,4.8253,4.8268,4.8293,4.8348,4.8364,4.843,4.8437,4.8517,4.8513,4.8504,4.8504,4.8551,4.8547,4.8699,4.872,4.8593,4.8595,4.8596,0,4.7973,4.8018,4.8064,4.8095,4.8118,4.8168,4.8199,4.8211,4.8245,4.8294,4.8329,4.8383,4.8427,4.8515,4.854,4.8591,4.8589,4.8639,4.8596,4.8594,4.8591,4.8588,4.8594,4.8646,4.8648,4.8649,4.865,0,4.8079,4.8086,4.8132,4.8182,4.822,4.826,4.8298,4.8324,4.8341,4.838,4.8436,4.847,4.8538,4.8593,4.8645,4.8668,4.8663,4.8663,4.8677,4.8676,4.8669,4.8675,4.8527,4.8659,4.8658,4.8657,4.8657,4.8657,4.8153,4.8194,4.8233,4.8285,4.8315,4.8352,4.8393,4.8415,4.8462,4.8519,4.8523,4.8585,4.8624,4.8694,4.872,4.8769,4.8755,4.8774,4.878,4.8784,4.8789,4.8661,4.8779,4.8778,4.8778,4.8778,4.8778,0,4.8259,4.8285,4.8333,4.8387,4.8429,4.8421,4.8463,4.8499,4.8553,4.859,4.8635,4.8701,4.8754,4.8784,4.8838,4.8872,4.8871,4.8885,4.8883,4.8889,4.8798,4.8781,4.8885,4.8885,4.8885,4.8885,4.8885,4.8885,4.832,4.8389,4.8401,4.8486,4.8511,4.8571,4.8596,4.8631,4.8661,4.8735,4.878,4.8799,4.8835,4.8891,4.8941,4.8948,4.8969,4.8986,4.8992,4.8906,4.8895,4.8884,4.8869,4.899,4.899,4.9079,4.9079,4.908]},{"header":{"parameterUnit":"m.s-1","parameterCategory":1,"la1":30.2991,"la2":30.254,"lo1":-89.0895,"lo2":-89.0444,"dy":0.0017,"dx":0.0017,"nx":28,"ny":28,"refTime":"2025-03-19T21:00:00:Z","depth":0,"parameterNumber":3,"parameterNumberName":"V-component_of_WINDS"},"data":[0,0,0,0,0,0,0,0,0,0,0,0,0,0,0,0,0,0,0,0,0,0,0,0,0,0,0,0,0,0,0,0,0,0,0,0,0,0,0,0,0,0,0,0,0,0,0,0,0,0,0,0,0,0,0,0,0,0,-6.0272,-6.0273,0,-6.0362,-6.0363,-6.0364,-6.0359,-6.0358,-6.0357,-6.0355,-6.0443,-6.0446,-6.0449,0,0,0,0,0,0,0,0,0,0,0,0,0,-6.0096,-6.0099,-6.0272,-6.0273,-6.0275,-6.0361,-6.0363,-6.0364,-6.0359,-6.0358,-6.0356,-6.0355,-6.0441,-6.0446,-6.045,0,0,0,0,0,0,0,0,0,0,0,0,0,-6.0178,-6.0101,-6.0272,-6.0283,-6.0285,-6.0361,-6.0363,-6.0364,-6.036,-6.0358,-6.0356,-6.0354,-6.044,-6.0445,-6.045,-6.052,0,0,-6.0466,-6.0469,0,0,0,0,0,0,0,0,-6.0173,-6.0184,-6.028,-6.0282,-6.0285,-6.0347,-6.0332,-6.0416,-6.036,-6.0331,-6.0355,-6.0353,-6.0412,-6.042,-6.044,-6.0525,-6.0528,-6.0467,-6.047,-6.0472,-6.0474,0,0,0,0,0,0,0,-6.0167,-6.018,-6.0307,-6.0282,-6.0284,-6.0283,-6.0292,-6.0348,-6.0381,-6.0334,-6.0333,-6.0344,-6.0413,-6.0435,-6.0442,-6.053,-6.0467,-6.0471,-6.0475,-6.0477,-6.0678,-6.068,0,0,0,0,0,0,-6.016,-6.0176,-6.0305,-6.031,-6.0223,-6.0287,-6.0298,-6.0329,-6.038,-6.0387,-6.0346,-6.0344,-6.0427,-6.0436,-6.0445,-6.0532,-6.0472,-6.0477,-6.048,-6.0676,-6.0679,-6.0681,0,0,0,0,0,0,-6.0156,-6.0171,-6.0301,-6.0243,-6.0259,-6.0292,-6.0327,-6.0332,-6.0354,-6.039,-6.0395,-6.0363,-6.0426,-6.0438,-6.0503,-6.0535,-6.0479,-6.0484,-6.0673,-6.0677,-6.068,-6.0706,0,0,0,0,0,0,-6.0151,-6.017,-6.0197,-6.0244,-6.0263,-6.0358,-6.0329,-6.0335,-6.0364,-6.0362,-6.0407,-6.0413,-6.0426,-6.0495,-6.0508,-6.0541,-6.0488,-6.0671,-6.0675,-6.0679,-6.0702,-6.071,-6.0716,0,0,0,0,0,-6.0145,-6.02,-6.0199,-6.0214,-6.0298,-6.0359,-6.037,-6.0385,-6.0366,-6.0394,-6.0417,-6.0411,-6.053,-6.0502,-6.0516,-6.0552,-6.0669,-6.0674,-6.0679,-6.0699,-6.0708,-6.0716,0,0,0,0,0,0,-6.0154,-6.0206,-6.0205,-6.0277,-6.0314,-6.0359,-6.0394,-6.0394,-6.0435,-6.0432,-6.0447,-6.0458,-6.0523,-6.0544,-6.0511,-6.0624,-6.0597,-6.0605,-6.0607,-6.0616,-6.0623,-6.0616,-6.0493,0,0,0,0,0,-6.0165,-6.0212,-6.0254,-6.0313,-6.0332,-6.036,-6.0387,-6.0396,-6.0434,-6.0449,-6.0477,-6.0514,-6.056,-6.0589,-6.0633,-6.0706,-6.0716,-6.0737,-6.0744,-6.075,-6.0756,-6.0798,-6.0809,-6.0697,-6.0697,-6.0697,0,0,-6.0187,-6.0221,-6.0249,-6.0316,-6.0346,-6.0394,-6.0373,-6.0424,-6.0459,-6.0457,-6.052,-6.0542,-6.0584,-6.0654,-6.0686,-6.0673,-6.079,-6.0756,-6.076,-6.0764,-6.0804,-6.0815,-6.0824,-6.0701,-6.07,-6.07,0,0,-6.0251,-6.0282,-6.0335,-6.0366,-6.0413,-6.0431,-6.0444,-6.049,-6.0505,-6.0569,-6.0569,-6.0611,-6.0689,-6.072,-6.0745,-6.0825,-6.0822,-6.0839,-6.0874,-6.0915,-6.0924,-6.0932,-6.0961,-6.0971,-6.0845,-6.0846,-6.0846,0,-6.0272,-6.0345,-6.0362,-6.0415,-6.0445,-6.0447,-6.0502,-6.053,-6.0588,-6.0608,-6.0594,-6.0694,-6.0722,-6.0799,-6.0819,-6.084,-6.0855,-6.0833,-6.0921,-6.0929,-6.0937,-6.0965,-6.0976,-6.0847,-6.0847,-6.0847,-6.0847,0,-6.0369,-6.042,-6.0458,-6.0516,-6.055,-6.0603,-6.0628,-6.0661,-6.0667,-6.0687,-6.0754,-6.0788,-6.084,-6.0859,-6.0864,-6.0938,-6.0929,-6.0918,-6.0891,-6.0949,-6.0976,-6.0987,-6.085,-6.0849,-6.0849,-6.0848,0,0,-6.044,-6.051,-6.0523,-6.0551,-6.0603,-6.0642,-6.0696,-6.0749,-6.0777,-6.0817,-6.0863,-6.093,-6.0921,-6.095,-6.096,-6.0995,-6.1058,-6.098,-6.0981,-6.0994,-6.1142,-6.115,-6.1163,-6.1056,-6.1058,-6.106,-6.1139,0,-6.0511,-6.0607,-6.0626,-6.071,-6.0758,-6.0762,-6.0809,-6.0846,-6.0867,-6.091,-6.0932,-6.0981,-6.0964,-6.0983,-6.1018,-6.1043,-6.1088,-6.1037,-6.1098,-6.11,-6.1088,-6.1176,-6.1185,-6.1257,-6.1149,-6.1151,-6.1152,0,-6.0605,-6.0651,-6.074,-6.0789,-6.0809,-6.0851,-6.0902,-6.0944,-6.0986,-6.0999,-6.1034,-6.104,-6.1096,-6.1068,-6.1145,-6.111,-6.1137,-6.1153,-6.1156,-6.1162,-6.113,-6.1185,-6.1281,-6.1292,-6.1169,-6.1167,-6.1166,0,-6.0649,-6.0732,-6.0797,-6.082,-6.0878,-6.0908,-6.0933,-6.0974,-6.1006,-6.105,-6.1071,-6.112,-6.1147,-6.1185,-6.1205,-6.1182,-6.1282,-6.1254,-6.1294,-6.1293,-6.1314,-6.1312,-6.1415,-6.1331,-6.1331,-6.133,-6.133,0,-6.0726,-6.078,-6.0818,-6.0858,-6.092,-6.094,-6.1001,-6.1025,-6.1063,-6.1107,-6.1113,-6.1155,-6.1178,-6.1223,-6.1238,-6.1301,-6.1313,-6.1325,-6.1328,-6.1324,-6.1323,-6.1341,-6.1337,-6.1333,-6.1333,-6.1332,-6.1332,0,-6.0784,-6.0812,-6.0883,-6.0933,-6.0947,-6.0991,-6.1034,-6.1072,-6.1094,-6.1151,-6.1165,-6.1199,-6.1253,-6.1277,-6.1341,-6.1352,-6.1424,-6.1423,-6.141,-6.1411,-6.1449,-6.1446,-6.1568,-6.1586,-6.1489,-6.149,-6.1491,0,-6.0831,-6.0874,-6.093,-6.0962,-6.0988,-6.1038,-6.1071,-6.1094,-6.1128,-6.1181,-6.1214,-6.1268,-6.1313,-6.1398,-6.1428,-6.1478,-6.1479,-6.1519,-6.1487,-6.1482,-6.1481,-6.1478,-6.1483,-6.1524,-6.1525,-6.1526,-6.1527,0,-6.0913,-6.0925,-6.0973,-6.1027,-6.1066,-6.1109,-6.115,-6.1175,-6.1205,-6.1242,-6.1299,-6.1333,-6.1402,-6.1456,-6.1509,-6.1534,-6.1536,-6.1537,-6.1549,-6.1545,-6.1536,-6.1542,-6.1426,-6.1534,-6.1533,-6.1533,-6.1532,-6.1532,-6.0967,-6.1006,-6.1053,-6.1106,-6.1141,-6.1181,-6.122,-6.1249,-6.1296,-6.1355,-6.1365,-6.1425,-6.1468,-6.154,-6.1568,-6.1615,-6.1605,-6.1622,-6.1626,-6.163,-6.1633,-6.1529,-6.1624,-6.1624,-6.1624,-6.1624,-6.1624,0,-6.1049,-6.108,-6.113,-6.1189,-6.1232,-6.1232,-6.1279,-6.1314,-6.1368,-6.1409,-6.1454,-6.1519,-6.1572,-6.1607,-6.1661,-6.1692,-6.1694,-6.1705,-6.1703,-6.1709,-6.1638,-6.1623,-6.1703,-6.1703,-6.1703,-6.1703,-6.1703,-6.1703,-6.1097,-6.1164,-6.1182,-6.1266,-6.1296,-6.1356,-6.1383,-6.142,-6.1453,-6.1527,-6.1572,-6.1595,-6.1634,-6.1691,-6.174,-6.1749,-6.1769,-6.1781,-6.1789,-6.1722,-6.1714,-6.1706,-6.1692,-6.1785,-6.1785,-6.1856,-6.1857,-6.1858]}]]